Weather reports worldwide

Advertisment
Putbus, Germany (10093): temperature & dewpoint: 18.06.2018 15:00:00 - 24.06.2018 15:00:00 (CEST)Putbus, Germany (10093): temperature 5cm & temperature -5cm: 18.06.2018 15:00:00 - 24.06.2018 15:00:00 (CEST)Putbus, Germany (10093): temperature -20cm & temperature -100cm: 18.06.2018 15:00:00 - 24.06.2018 15:00:00 (CEST)Putbus, Germany (10093): wind speed & gusts: 18.06.2018 15:00:00 - 24.06.2018 15:00:00 (CEST)Putbus, Germany (10093): wind direction: 18.06.2018 15:00:00 - 24.06.2018 15:00:00 (CEST)Putbus, Germany (10093): reduced air pressure: 18.06.2018 15:00:00 - 24.06.2018 15:00:00 (CEST)Putbus, Germany (10093): visibility: 18.06.2018 15:00:00 - 24.06.2018 15:00:00 (CEST)Putbus, Germany (10093): sunshine duration: 18.06.2018 15:00:00 - 24.06.2018 15:00:00 (CEST)Putbus, Germany (10093): precipitation: 18.06.2018 15:00:00 - 24.06.2018 15:00:00 (CEST)
Date & Time tt [°C] td [°C] tt 5cm [°C] tt -5cm [°C] tt -20cm [°C] tt -100cm [°C] ff [km/h] ff [kn] fx [km/h] fx [kn] dd ppp [hPa] vv [km] sd [min] rr [mm]
24.06.2018 15:00:00 17,6 10,9 22,5 26,1 18,3 16,0 13 7 26 14 WNW 1016,6 25 31 0,0
24.06.2018 14:00:00 17,4 11,1 22,5 25,4 17,3 16,0 13 7 29 15 NW 1016,8 38 39 0,0
24.06.2018 13:00:00 17,4 11,5 22,6 23,5 16,5 16,0 21 12 33 18 W 1016,8 10 50 0,0
24.06.2018 12:00:00 16,7 11,4 20,2 19,5 16,0 16,0 17 9 26 14 WNW 1016,7 23 8 0,0
24.06.2018 11:00:00 15,1 11,7 17,1 17,3 15,7 16,0 16 9 29 16 W 1016,6 28 0 0,0
24.06.2018 10:00:00 14,2 11,2 15,0 15,9 15,6 16,0 13 7 24 13 WNW 1016,6 29 0 0,0
24.06.2018 09:00:00 13,9 11,2 14,7 15,5 15,4 16,1 13 7 22 12 WNW 1016,3 37 0 0,0
24.06.2018 08:00:00 14,8 10,9 16,2 15,3 15,3 16,1 16 8 27 15 NW 1015,9 22 12 0,0
24.06.2018 07:00:00 14,0 10,6 14,5 14,1 15,4 16,1 10 5 17 9 WNW 1015,8 38 1 0,0
24.06.2018 06:00:00 13,3 10,3 13,1 13,4 15,5 16,1 9 5 16 9 WNW 1015,9 49 7 0,0
24.06.2018 05:00:00 13,0 10,0 12,5 13,2 15,7 16,1 9 5 21 12 NW 1016,0 50 0 0,0
24.06.2018 04:00:00 13,1 9,9 12,5 13,2 15,9 16,1 11 6 24 13 NNW 1016,1 50 0 0,0
24.06.2018 03:00:00 13,4 10,0 12,7 13,4 16,2 16,1 16 8 27 15 WNW 1016,3 53 0 0,0
24.06.2018 02:00:00 13,8 10,0 13,0 13,8 16,4 16,1 16 8 24 13 NW 1016,6 45 0 0,0
24.06.2018 01:00:00 14,1 10,8 13,6 14,1 16,8 16,2 13 7 25 14 WNW 1016,6 62 0 0,0
24.06.2018 00:00:00 13,6 10,1 12,6 14,1 17,2 16,2 15 8 22 12 W 1016,8 54 0 0,0
23.06.2018 23:00:00 14,3 9,9 13,5 14,9 17,5 16,2 14 8 25 13 W 1016,7 70 0 0,0
23.06.2018 22:00:00 14,6 9,7 14,0 15,7 17,9 16,2 16 8 23 12 W 1016,5 56 0 0,0
23.06.2018 21:00:00 15,0 9,4 14,5 16,8 18,3 16,2 16 9 34 19 WNW 1016,2 60 1 0,0
23.06.2018 20:00:00 15,4 9,5 15,3 18,2 18,5 16,2 21 12 40 22 WNW 1016,2 52 7 0,0
23.06.2018 19:00:00 16,1 9,5 16,4 19,9 18,5 16,3 26 14 41 22 W 1016,2 36 26 0,0
23.06.2018 18:00:00 17,0 8,2 18,5 22,0 18,2 16,3 27 14 42 23 WNW 1016,2 19 57 0,0
23.06.2018 17:00:00 17,5 8,0 19,4 21,3 17,9 16,3 27 15 44 24 WNW 1016,4 21 46 0,0
23.06.2018 16:00:00 17,5 8,7 20,7 20,8 17,5 16,3 27 15 45 24 W 1016,4 22 32 0,0
23.06.2018 15:00:00 16,5 9,7 19,7 20,7 17,0 16,3 22 12 49 26 WNW 1016,6 12 37 0,0
23.06.2018 14:00:00 16,5 9,9 19,3 19,8 16,5 16,3 30 16 46 25 WNW 1016,5 13 31 0,0
23.06.2018 13:00:00 15,6 9,3 17,4 18,4 16,1 16,4 24 13 40 22 WNW 1016,4 16 6 0,0
23.06.2018 12:00:00 15,2 9,4 17,0 18,6 15,7 16,4 25 14 45 24 WNW 1016,2 14 24 0,0
23.06.2018 11:00:00 15,7 10,3 18,5 17,2 15,3 16,4 23 13 41 22 W 1015,9 22 18 0,0
23.06.2018 10:00:00 14,1 9,1 15,8 15,9 14,9 16,4 25 13 44 24 WNW 1015,6 18 20 0,0
23.06.2018 09:00:00 14,3 9,2 16,5 14,7 14,7 16,4 23 12 46 25 WNW 1015,3 16 52 0,0
23.06.2018 08:00:00 12,7 8,2 13,7 13,3 14,7 16,4 21 11 35 19 WNW 1015,2 22 6 0,0
23.06.2018 07:00:00 11,9 7,6 12,1 12,2 14,8 16,5 22 12 36 19 WNW 1015,3 28 0 0,0
23.06.2018 06:00:00 11,5 7,3 11,2 11,7 15,1 16,5 20 11 39 21 WNW 1015,3 27 0 0,0
23.06.2018 05:00:00 11,5 7,0 11,1 11,9 15,3 16,5 24 13 37 20 W 1014,9 26 0 0,0
23.06.2018 04:00:00 11,7 7,7 11,2 12,1 15,6 16,5 22 12 46 25 W 1015,0 22 0 0,0
23.06.2018 03:00:00 11,9 7,9 11,1 12,5 15,9 16,5 24 13 41 22 W 1014,8 26 0 0,1
23.06.2018 02:00:00 12,0 8,6 10,5 12,8 16,2 16,6 24 13 44 24 W 1014,8 12 0 0,1
23.06.2018 01:00:00 13,0 7,8 12,5 13,1 16,5 16,6 23 13 41 22 W 1014,9 47 0 0,0
23.06.2018 00:00:00 13,2 9,1 12,7 13,6 16,9 16,6 21 11 42 23 W 1015,0 40 0 0,0
22.06.2018 23:00:00 13,6 9,4 13,1 13,8 17,3 16,6 28 15 48 26 W 1014,7 38 0 0,0
22.06.2018 22:00:00 13,7 9,0 13,3 14,3 17,9 16,6 25 13 45 24 W 1014,7 32 0 0,0
22.06.2018 21:00:00 13,5 8,5 12,8 15,1 18,4 16,7 22 12 42 23 W 1014,8 37 0 0,0
22.06.2018 20:00:00 13,9 7,5 13,4 16,4 18,8 16,7 26 14 54 29 W 1015,1 32 21 0,0
22.06.2018 19:00:00 15,1 7,4 14,7 18,8 19,0 16,7 32 18 54 29 W 1015,0 32 41 0,0
22.06.2018 18:00:00 17,1 9,2 18,6 20,8 18,9 16,7 36 19 61 33 W 1014,8 17 48 0,0
22.06.2018 17:00:00 16,8 8,8 17,7 21,6 18,6 16,8 27 15 47 26 W 1014,8 20 38 0,0
22.06.2018 16:00:00 18,2 9,6 21,5 22,5 18,1 16,8 27 14 46 25 W 1014,6 13 55 0,0
22.06.2018 15:00:00 17,5 8,7 19,9 22,1 17,5 16,8 26 14 49 26 W 1014,4 20 55 0,0
22.06.2018 14:00:00 17,5 8,6 21,3 21,9 16,7 16,8 25 14 45 25 W 1014,1 10 59 0,0
22.06.2018 13:00:00 16,9 8,4 20,4 20,7 16,0 16,8 26 14 42 23 W 1013,9 11 60 0,0
22.06.2018 12:00:00 15,3 8,8 18,3 18,5 15,3 16,8 32 17 44 24 W 1013,6 14 41 0,0
22.06.2018 11:00:00 13,7 8,7 15,3 16,4 14,9 16,9 26 14 43 23 WNW 1013,3 18 13 0,0
22.06.2018 10:00:00 13,5 7,9 14,9 15,4 14,5 16,9 28 15 45 25 WNW 1012,6 16 37 0,0
22.06.2018 09:00:00 11,5 9,4 12,0 13,4 14,2 16,9 16 8 31 17 W 1012,0 47 10 0,0
22.06.2018 08:00:00 11,4 9,2 12,0 12,7 14,1 16,9 23 13 37 20 WSW 1011,4 28 54 0,0
22.06.2018 07:00:00 10,4 8,8 11,1 10,9 14,2 16,9 20 11 32 17 WSW 1011,1 6 55 0,0
22.06.2018 06:00:00 9,1 8,1 9,2 10,2 14,5 16,9 18 10 29 15 WSW 1011,0 28 6 0,0
22.06.2018 05:00:00 8,8 7,6 8,0 10,3 14,7 16,9 18 10 32 17 WSW 1010,9 38 0 0,0
22.06.2018 04:00:00 9,1 7,9 8,9 10,7 15,0 16,9 19 10 38 21 WSW 1010,7 36 0 0,0
22.06.2018 03:00:00 9,4 7,9 9,1 10,9 15,3 16,9 13 7 33 18 SW 1010,8 43 0 0,0
22.06.2018 02:00:00 9,8 7,2 9,1 11,1 15,6 16,9 18 10 38 21 WSW 1010,7 43 0 0,0
22.06.2018 01:00:00 10,9 7,0 9,7 11,2 16,0 16,9 17 9 36 20 W 1011,1 51 0 0,0
22.06.2018 00:00:00 10,7 6,8 9,7 11,5 16,5 16,9 21 11 36 19 W 1011,1 54 0 0,0
21.06.2018 23:00:00 11,3 7,2 10,0 12,1 17,0 16,9 20 11 44 24 W 1010,9 57 0 0,0
21.06.2018 22:00:00 11,2 8,3 10,0 12,8 17,4 16,9 22 12 37 20 W 1010,7 50 0 0,0
21.06.2018 21:00:00 10,6 8,9 9,8 13,7 17,8 16,9 21 11 44 24 W 1010,5 52 2 0,0
21.06.2018 20:00:00 11,1 8,7 10,4 15,3 18,1 16,9 24 13 41 22 W 1010,6 50 20 0,0
21.06.2018 19:00:00 10,9 9,3 10,5 14,9 18,5 16,9 21 11 40 22 W 1010,0 13 0 0,9
21.06.2018 18:00:00 10,8 9,9 10,9 15,5 18,8 16,9 21 11 35 19 WNW 1008,9 3,5 0 2,3
21.06.2018 17:00:00 11,2 10,3 11,3 16,5 19,1 16,9 19 10 37 20 W 1008,4 11 0 2,2
21.06.2018 16:00:00 11,8 10,7 11,9 18,1 19,1 16,9 12 6 29 16 W 1008,0 6 10 4,0
21.06.2018 15:00:00 13,8 10,6 14,6 18,3 19,1 16,9 19 11 32 17 W 1007,5 61 3 0,0
21.06.2018 14:00:00 12,2 11,2 12,2 16,6 19,3 16,9 12 6 26 14 SW 1008,0 34 0 0,2
21.06.2018 13:00:00 12,6 11,8 12,9 17,2 19,6 16,9 16 9 27 14 W 1008,0 21 0 0,9
21.06.2018 12:00:00 12,0 11,2 12,3 16,4 20,0 16,9 18 10 41 22 W 1008,9 8 0 2,5
21.06.2018 11:00:00 12,1 11,6 12,1 16,5 20,4 16,9 14 8 39 21 WNW 1008,1 3,5 0 4,0
21.06.2018 10:00:00 13,6 13,1 13,8 18,2 20,7 16,9 20 11 37 20 NNW 1007,3 7 0 3,5
21.06.2018 09:00:00 16,8 15,9 16,7 19,9 20,8 16,9 7 4 24 13 W 1007,9 5 0 0,6
21.06.2018 08:00:00 17,4 15,3 17,6 20,5 20,8 16,9 13 7 22 12 SW 1009,0 11 4 0,0
21.06.2018 07:00:00 17,3 15,4 17,7 19,2 21,0 16,9 13 7 19 10 WSW 1009,5 9 32 0,0
21.06.2018 06:00:00 16,3 15,1 16,1 18,3 21,4 16,9 12 7 18 10 W 1010,0 6 25 0,0
21.06.2018 05:00:00 15,3 14,6 14,2 18,4 21,8 16,9 11 6 16 9 W 1010,9 4,7 0 0,0
21.06.2018 04:00:00 15,9 14,9 14,7 18,9 22,3 16,9 10 5 17 9 WSW 1011,7 7 0 0,0
21.06.2018 03:00:00 16,3 15,1 14,6 19,6 22,8 16,9 9 5 12 7 SW 1012,2 11 0 0,0
21.06.2018 02:00:00 16,7 15,2 15,4 20,5 23,3 16,9 11 6 21 12 W 1012,9 13 0 0,0
21.06.2018 01:00:00 17,8 15,7 16,6 21,5 23,9 16,9 14 7 22 12 W 1013,6 12 0 0,0
21.06.2018 00:00:00 19,1 15,8 17,8 22,5 24,5 16,9 15 8 29 16 W 1014,0 12 0 0,0
20.06.2018 23:00:00 20,4 14,2 18,9 23,7 25,0 16,9 11 6 20 11 SSW 1013,9 16 0 0,0
20.06.2018 22:00:00 21,4 14,1 19,9 25,6 25,5 16,9 11 6 21 11 SW 1014,3 24 0 0,0
20.06.2018 21:00:00 22,8 13,6 21,9 28,3 25,8 16,9 10 6 23 13 SW 1014,4 27 58 0,0
20.06.2018 20:00:00 24,1 13,7 24,2 30,5 25,8 16,9 14 8 28 15 SW 1014,9 20 60 0,0
20.06.2018 19:00:00 24,8 14,3 26,1 31,6 25,7 16,9 15 8 37 20 SW 1015,6 40 42 0,0
20.06.2018 18:00:00 24,5 13,9 25,8 32,1 25,4 16,9 17 9 40 22 WSW 1016,4 27 28 0,0
20.06.2018 17:00:00 24,7 13,7 26,4 32,9 25,0 16,9 20 11 41 22 SW 1016,9 44 29 0,0
20.06.2018 16:00:00 24,3 13,4 26,2 33,3 24,3 16,9 23 12 47 26 SW 1017,4 24 32 0,0
20.06.2018 15:00:00 24,3 12,8 27,1 33,5 23,4 16,9 26 14 45 24 SW 1018,0 13 42 0,0
20.06.2018 14:00:00 24,8 13,1 28,9 32,9 22,4 16,9 19 11 41 22 SW 1018,6 25 51 0,0
20.06.2018 13:00:00 22,6 13,4 25,7 30,6 21,4 16,9 20 11 39 21 SW 1019,6 38 48 0,0
20.06.2018 12:00:00 21,5 12,9 24,5 28,7 20,4 16,9 20 11 32 17 WSW 1020,2 20 52 0,0
20.06.2018 11:00:00 19,4 12,4 21,7 26,4 19,5 16,9 17 9 35 19 SSW 1021,0 25 47 0,0
20.06.2018 10:00:00 19,0 8,6 22,7 23,4 18,8 16,9 14 8 24 13 SW 1021,4 50 59 0,0
20.06.2018 09:00:00 17,1 10,6 20,0 20,1 18,5 16,9 11 6 23 12 SW 1021,6 16 56 0,0
20.06.2018 08:00:00 15,7 11,0 17,7 17,4 18,4 16,9 14 8 23 12 WSW 1021,8 15 60 0,0
20.06.2018 07:00:00 13,9 10,9 15,1 15,2 18,6 16,9 10 5 15 8 WSW 1021,9 16 60 0,0
20.06.2018 06:00:00 12,0 10,2 12,1 14,5 19,0 16,9 9 5 15 8 WSW 1021,7 22 33 0,0
20.06.2018 05:00:00 10,6 9,4 8,7 14,4 19,4 16,9 10 5 14 8 WSW 1021,7 19 0 0,0
20.06.2018 04:00:00 10,8 9,4 9,2 14,8 20,0 16,9 11 6 14 8 WSW 1021,6 24 0 0,0
20.06.2018 03:00:00 10,7 9,4 7,7 15,4 20,5 16,9 10 5 15 8 WSW 1021,6 23 0 0,0
20.06.2018 02:00:00 11,7 9,6 9,2 16,3 21,1 16,9 9 5 14 7 WSW 1021,6 30 0 0,0
20.06.2018 01:00:00 12,7 9,8 11,2 17,3 21,8 16,9 9 5 20 11 W 1021,7 29 0 0,0
20.06.2018 00:00:00 13,4 10,0 11,7 18,4 22,4 16,9 13 7 21 12 W 1021,5 39 0 0,0
19.06.2018 23:00:00 14,5 10,1 12,9 19,8 23,1 16,9 14 7 29 16 W 1021,2 38 0 0,0
19.06.2018 22:00:00 16,0 10,3 14,8 21,7 23,6 16,9 16 9 36 19 W 1020,7 40 30 0,0
19.06.2018 21:00:00 17,4 10,9 16,6 24,3 24,0 16,9 22 12 44 24 W 1020,3 58 60 0,0
19.06.2018 20:00:00 18,4 11,1 19,0 26,7 24,1 16,9 27 15 43 23 WNW 1020,1 23 60 0,0
19.06.2018 19:00:00 19,5 12,6 21,0 28,5 23,8 16,9 26 14 45 24 WNW 1020,0 27 60 0,0
19.06.2018 18:00:00 20,7 13,2 23,0 29,3 23,4 16,9 29 16 46 25 WNW 1019,5 16 57 0,0
19.06.2018 17:00:00 20,9 13,2 23,6 28,7 23,0 16,9 29 16 48 26 WNW 1019,5 13 40 0,0
19.06.2018 16:00:00 20,6 14,2 23,0 27,6 22,6 16,9 29 15 49 26 W 1019,3 16 34 0,0
19.06.2018 15:00:00 20,6 13,9 23,3 26,7 22,3 16,9 30 16 50 27 W 1019,0 15 12 0,0
19.06.2018 14:00:00 20,3 13,6 21,8 26,6 21,8 16,9 22 12 45 24 W 1018,9 25 11 0,0
19.06.2018 13:00:00 20,6 13,3 24,9 27,3 21,1 16,9 29 15 45 24 W 1018,5 14 38 0,0
19.06.2018 12:00:00 20,5 13,8 24,7 24,7 20,6 16,9 25 13 42 23 W 1018,4 10 27 0,0
19.06.2018 11:00:00 18,4 14,0 19,9 22,3 20,3 16,9 22 12 36 19 W 1018,5 15 5 0,0
19.06.2018 10:00:00 18,5 14,4 20,5 22,0 20,0 16,9 19 10 35 19 W 1017,8 12 14 0,0
19.06.2018 09:00:00 17,6 14,3 18,8 19,6 19,9 16,9 16 9 32 17 WSW 1017,3 17 12 0,0
19.06.2018 08:00:00 17,1 13,9 18,5 18,7 20,0 16,9 16 9 33 18 WSW 1017,2 11 60 0,0
19.06.2018 07:00:00 16,1 14,5 16,2 17,9 20,2 16,8 17 9 29 16 W 1017,3 6 38 0,0
19.06.2018 06:00:00 15,7 14,7 15,3 17,7 20,6 16,8 15 8 27 15 WSW 1016,9 9 0 0,0
19.06.2018 05:00:00 15,1 14,5 14,6 17,5 21,0 16,8 13 7 24 13 WSW 1016,6 9 0 0,0
19.06.2018 04:00:00 15,3 14,6 14,4 18,4 21,4 16,8 11 6 21 11 WSW 1016,6 14 0 0,0
19.06.2018 03:00:00 15,5 15,0 15,1 19,4 21,8 16,8 9 5 34 19 WSW 1016,6 17 0 1,0
19.06.2018 02:00:00 16,7 15,2 16,3 20,4 22,1 16,8 19 10 26 14 W 1017,1 12 0 0,0
19.06.2018 01:00:00 17,1 14,2 16,7 20,9 22,5 16,8 5 3 14 7 WSW 1016,8 33 0 0,0
19.06.2018 00:00:00 18,0 14,1 17,5 21,3 22,9 16,8 7 4 13 7 S 1017,0 37 0 0,0
18.06.2018 23:00:00 16,9 13,8 16,3 21,9 23,3 16,8 7 4 10 5 S 1017,5 17 0 0,0
18.06.2018 22:00:00 18,0 14,2 17,6 23,4 23,6 16,8 4 2 9 5 S 1017,4 20 0 0,0
18.06.2018 21:00:00 18,5 14,4 18,6 24,8 23,9 16,8 0 0 5 3 N 1017,3 29 0 0,0
18.06.2018 20:00:00 19,0 14,1 20,1 26,0 24,0 16,8 5 3 9 5 N 1017,4 33 0 0,0
18.06.2018 19:00:00 19,3 14,1 21,0 27,2 24,0 16,8 8 4 11 6 NE 1017,5 39 2 0,0
18.06.2018 18:00:00 20,1 11,3 21,3 28,1 23,9 16,8 8 4 16 9 WNW 1017,7 47 0 0,0
18.06.2018 17:00:00 20,8 11,1 23,1 29,4 23,6 16,8 11 6 19 10 WNW 1017,9 43 3 0,0
18.06.2018 16:00:00 21,1 11,7 25,1 28,9 23,2 16,8 10 5 18 10 WNW 1017,9 18 16 0,0
18.06.2018 15:00:00 19,2 11,6 20,5 29,3 22,6 16,8 9 5 26 14 S 1018,3 38 24 0,0

tt = temperature
td = dewpoint
tt 5cm = temperature 5cm
tt -5cm = temperature -5cm
tt -20cm = temperature -20cm
tt -100cm = temperature -100cm
ff = wind speed
fx = gusts
dd = wind direction
ppp = reduced air pressure
vv = visibility
sd = sunshine duration
rr = precipitation

Next stations